[[{"header":{"parameterUnit":"m.s-1","parameterCategory":1,"la1":30.2991,"la2":30.254,"lo1":-89.0895,"lo2":-89.0444,"dy":0.0017,"dx":0.0017,"nx":28,"ny":28,"refTime":"2024-07-10T09:00:00:Z","depth":0,"parameterNumber":2,"parameterNumberName":"U-component_of_WINDS"},"data":[0,0,0,0,0,0,0,0,0,0,0,0,0,0,0,0,0,0,0,0,0,0,0,0,0,0,0,0,0,0,0,0,0,0,0,0,0,0,0,0,0,0,0,0,0,0,0,0,0,0,0,0,0,0,0,0,0,0,2.225,2.2251,0,2.2324,2.2324,2.2325,2.2299,2.2298,2.2296,2.2295,2.237,2.2373,2.2377,0,0,0,0,0,0,0,0,0,0,0,0,0,2.2085,2.2088,2.225,2.2251,2.2252,2.2323,2.2324,2.2325,2.23,2.2298,2.2296,2.2294,2.2369,2.2373,2.2377,0,0,0,0,0,0,0,0,0,0,0,0,0,2.2157,2.2089,2.225,2.2247,2.2248,2.2323,2.2325,2.2326,2.23,2.2298,2.2295,2.2293,2.2367,2.2373,2.2378,2.246,0,0,2.2394,2.2396,0,0,0,0,0,0,0,0,2.2153,2.2163,2.2247,2.2248,2.2248,2.23,2.2294,2.2371,2.2301,2.228,2.2294,2.2292,2.2349,2.2355,2.2375,2.2463,2.2467,2.2394,2.2398,2.24,2.2401,0,0,0,0,0,0,0,2.2148,2.216,2.2279,2.2248,2.2249,2.2242,2.225,2.2308,2.2327,2.2282,2.228,2.2289,2.2349,2.2369,2.2376,2.2468,2.2394,2.2399,2.2402,2.2404,2.2624,2.2626,0,0,0,0,0,0,2.2143,2.2156,2.2277,2.2281,2.2194,2.2247,2.2256,2.2286,2.2327,2.233,2.2291,2.2288,2.2362,2.237,2.2379,2.2475,2.24,2.2405,2.2408,2.2621,2.2625,2.2627,0,0,0,0,0,0,2.2139,2.2154,2.2274,2.2218,2.2233,2.2253,2.2287,2.2289,2.2309,2.2334,2.2337,2.2309,2.236,2.2371,2.2439,2.2477,2.2407,2.2412,2.2618,2.2622,2.2626,2.2669,0,0,0,0,0,0,2.2135,2.2153,2.2185,2.2219,2.2236,2.2333,2.2289,2.2292,2.2319,2.2315,2.2351,2.2355,2.2359,2.2431,2.2444,2.2483,2.2416,2.2615,2.262,2.2625,2.2664,2.2674,2.2682,0,0,0,0,0,2.2129,2.2195,2.2186,2.2201,2.2276,2.2336,2.2345,2.2348,2.2322,2.2353,2.2369,2.2354,2.2471,2.2438,2.2453,2.2494,2.2612,2.2619,2.2624,2.266,2.2672,2.2682,0,0,0,0,0,0,2.2165,2.2199,2.219,2.2269,2.23,2.2331,2.2371,2.2361,2.24,2.2395,2.2397,2.2405,2.2474,2.2491,2.2454,2.2574,2.2538,2.2547,2.256,2.2571,2.258,2.2574,2.2421,0,0,0,0,0,2.2182,2.2227,2.2255,2.2322,2.2337,2.2352,2.2378,2.2377,2.2409,2.2422,2.2442,2.2473,2.2516,2.2545,2.2587,2.2667,2.2673,2.2702,2.2711,2.2718,2.2726,2.2766,2.2778,2.2647,2.2647,2.2647,0,0,2.2217,2.2242,2.227,2.2329,2.2353,2.2399,2.2363,2.2414,2.2448,2.243,2.2494,2.251,2.2545,2.2618,2.2652,2.2634,2.2763,2.2726,2.2732,2.2735,2.2773,2.2786,2.2797,2.2651,2.265,2.265,0,0,2.2305,2.2329,2.2386,2.241,2.2446,2.2454,2.2468,2.2501,2.251,2.2575,2.2562,2.2602,2.2678,2.2702,2.2724,2.2819,2.2806,2.2833,2.2879,2.2919,2.2929,2.2938,2.2969,2.2981,2.2841,2.2841,2.2841,0,2.2344,2.2414,2.2416,2.2468,2.2493,2.2478,2.2535,2.2558,2.2606,2.2623,2.2603,2.2696,2.2718,2.2796,2.2819,2.2838,2.2852,2.2828,2.2928,2.2937,2.2945,2.2975,2.2987,2.2844,2.2843,2.2843,2.2843,0,2.2459,2.2507,2.2549,2.2594,2.2624,2.2678,2.2688,2.2718,2.2715,2.2725,2.279,2.2817,2.2862,2.2881,2.2879,2.2957,2.2945,2.2927,2.289,2.296,2.2988,2.3,2.2848,2.2847,2.2846,2.2845,0,0,2.2571,2.2616,2.2631,2.265,2.2688,2.2724,2.2777,2.2821,2.2845,2.2879,2.2921,2.2985,2.2967,2.2993,2.2993,2.3028,2.3098,2.3005,2.3006,2.3019,2.3183,2.3195,2.3208,2.309,2.3093,2.3094,2.3179,0,2.2659,2.2751,2.2754,2.2838,2.2881,2.2867,2.2912,2.2939,2.2951,2.2988,2.3001,2.3044,2.3019,2.3034,2.3068,2.3082,2.3131,2.3077,2.3128,2.313,2.3117,2.3223,2.3236,2.3315,2.319,2.3192,2.3194,0,2.2775,2.281,2.2898,2.2927,2.2945,2.2986,2.3025,2.3062,2.3092,2.3098,2.3125,2.312,2.3172,2.3135,2.3206,2.3169,2.319,2.32,2.3203,2.3206,2.3164,2.3226,2.334,2.3351,2.3211,2.321,2.3209,0,2.2844,2.2914,2.2975,2.2992,2.3028,2.3057,2.3073,2.3101,2.3126,2.3161,2.3177,2.3217,2.3239,2.3269,2.3275,2.3248,2.3345,2.3309,2.3349,2.3349,2.3368,2.3366,2.3485,2.3386,2.3386,2.3386,2.3386,0,2.2941,2.2995,2.3006,2.3043,2.3101,2.3104,2.3162,2.3176,2.3201,2.3239,2.3231,2.3267,2.3273,2.331,2.3315,2.3371,2.3382,2.3386,2.3386,2.3386,2.3385,2.3398,2.3392,2.3389,2.3388,2.3388,2.3387,0,2.3028,2.3038,2.3102,2.3131,2.3139,2.3181,2.3205,2.324,2.325,2.3298,2.331,2.3325,2.3369,2.3377,2.3429,2.3432,2.3498,2.3494,2.3488,2.3486,2.3525,2.352,2.3654,2.367,2.3563,2.3564,2.3565,0,2.3088,2.3128,2.3161,2.3185,2.3203,2.3244,2.3269,2.3273,2.33,2.3336,2.3366,2.3408,2.3442,2.3512,2.3527,2.3566,2.3561,2.3606,2.3567,2.3564,2.3559,2.3555,2.3558,2.3612,2.3613,2.3614,2.3615,0,2.3192,2.3195,2.3232,2.327,2.33,2.3331,2.3359,2.338,2.3388,2.3418,2.3462,2.3488,2.354,2.3581,2.362,2.3636,2.3626,2.3627,2.3638,2.3636,2.363,2.3631,2.3505,2.3624,2.3623,2.3622,2.3622,2.3621,2.3266,2.33,2.3327,2.3368,2.339,2.3416,2.3449,2.3463,2.3499,2.3541,2.3542,2.3589,2.3616,2.3667,2.3685,2.3722,2.3708,2.3724,2.3728,2.3731,2.3733,2.3626,2.3729,2.3729,2.3729,2.3729,2.3728,0,2.3367,2.3384,2.3421,2.3461,2.3492,2.3481,2.3512,2.3539,2.358,2.3607,2.3639,2.3689,2.3728,2.3746,2.3785,2.381,2.3807,2.382,2.3817,2.382,2.3745,2.373,2.3822,2.3822,2.3822,2.3822,2.3822,2.3822,2.3423,2.3479,2.3485,2.3551,2.3567,2.3613,2.3631,2.3655,2.3676,2.3731,2.3763,2.3775,2.3797,2.3837,2.3873,2.3877,2.389,2.3905,2.3907,2.3836,2.3826,2.3817,2.3803,2.3909,2.3909,2.3979,2.398,2.398]},{"header":{"parameterUnit":"m.s-1","parameterCategory":1,"la1":30.2991,"la2":30.254,"lo1":-89.0895,"lo2":-89.0444,"dy":0.0017,"dx":0.0017,"nx":28,"ny":28,"refTime":"2024-07-10T09:00:00:Z","depth":0,"parameterNumber":3,"parameterNumberName":"V-component_of_WINDS"},"data":[0,0,0,0,0,0,0,0,0,0,0,0,0,0,0,0,0,0,0,0,0,0,0,0,0,0,0,0,0,0,0,0,0,0,0,0,0,0,0,0,0,0,0,0,0,0,0,0,0,0,0,0,0,0,0,0,0,0,2.2675,2.2675,0,2.265,2.265,2.265,2.2597,2.2596,2.2595,2.2594,2.2568,2.2568,2.2569,0,0,0,0,0,0,0,0,0,0,0,0,0,2.2675,2.2676,2.2675,2.2675,2.2675,2.265,2.265,2.265,2.2597,2.2596,2.2595,2.2593,2.2568,2.2568,2.2569,0,0,0,0,0,0,0,0,0,0,0,0,0,2.2665,2.2676,2.2675,2.2646,2.2643,2.2651,2.265,2.265,2.2597,2.2596,2.2594,2.2593,2.2568,2.2568,2.2569,2.2603,0,0,2.257,2.257,0,0,0,0,0,0,0,0,2.2666,2.2665,2.265,2.2648,2.2644,2.2625,2.264,2.2634,2.2598,2.2615,2.2594,2.2592,2.2588,2.2587,2.2586,2.2602,2.2601,2.257,2.257,2.257,2.2571,0,0,0,0,0,0,0,2.2667,2.2666,2.2665,2.265,2.2646,2.2633,2.263,2.2639,2.2611,2.2613,2.2609,2.2607,2.2586,2.2585,2.2585,2.2601,2.257,2.257,2.2571,2.2571,2.2641,2.2643,0,0,0,0,0,0,2.2672,2.2667,2.2666,2.2665,2.2651,2.2634,2.263,2.2633,2.261,2.2605,2.2608,2.2605,2.2585,2.2584,2.2584,2.2621,2.257,2.2571,2.2571,2.264,2.2642,2.2643,0,0,0,0,0,0,2.2672,2.2672,2.2667,2.2665,2.2663,2.2636,2.2639,2.2633,2.2632,2.2607,2.2601,2.2613,2.2584,2.2583,2.2598,2.2619,2.2571,2.2572,2.2638,2.264,2.2642,2.2697,0,0,0,0,0,0,2.2672,2.2673,2.2686,2.2666,2.2663,2.2683,2.264,2.2634,2.2633,2.2628,2.261,2.2605,2.2583,2.2598,2.2599,2.2619,2.2572,2.2636,2.2639,2.2642,2.2693,2.2701,2.2707,0,0,0,0,0,2.2673,2.2703,2.2687,2.2688,2.268,2.2684,2.2683,2.2657,2.2635,2.2648,2.2631,2.2606,2.2617,2.26,2.26,2.2621,2.2634,2.2638,2.2641,2.269,2.2699,2.2707,0,0,0,0,0,0,2.2728,2.27,2.2682,2.2707,2.2698,2.2676,2.2691,2.2668,2.2666,2.2661,2.2629,2.2625,2.2644,2.2634,2.2616,2.2652,2.2621,2.2625,2.2658,2.2667,2.2674,2.2675,2.2572,0,0,0,0,0,2.2743,2.2749,2.2724,2.2749,2.2745,2.2719,2.272,2.2701,2.269,2.2686,2.2671,2.2662,2.2663,2.2664,2.2664,2.2691,2.2685,2.2706,2.2713,2.2719,2.2722,2.2734,2.2742,2.2655,2.2655,2.2655,0,0,2.2774,2.2759,2.2766,2.2759,2.275,2.2757,2.2716,2.2725,2.2729,2.2688,2.2701,2.2689,2.2676,2.2697,2.2705,2.2689,2.2745,2.2724,2.2729,2.2729,2.2738,2.2746,2.2754,2.2658,2.2657,2.2657,0,0,2.2833,2.2824,2.2842,2.2833,2.282,2.2802,2.2806,2.2787,2.2777,2.2789,2.2758,2.2762,2.2765,2.2757,2.2753,2.2807,2.2782,2.2808,2.2845,2.2857,2.2863,2.2869,2.2887,2.2894,2.2812,2.2812,2.2812,0,2.2873,2.2882,2.2854,2.2864,2.2862,2.2824,2.2841,2.2834,2.2822,2.282,2.2802,2.2804,2.2793,2.281,2.2823,2.2822,2.2825,2.281,2.2865,2.287,2.2875,2.2892,2.2898,2.2815,2.2814,2.2814,2.2814,0,2.2931,2.2938,2.2954,2.2942,2.2941,2.2955,2.2928,2.293,2.2911,2.2894,2.2906,2.2891,2.2886,2.2889,2.2871,2.2903,2.2893,2.2871,2.2839,2.2887,2.2902,2.2908,2.2819,2.2818,2.2817,2.2816,0,0,2.3025,2.2996,2.3003,2.2996,2.2977,2.2981,2.2993,2.2988,2.299,2.2982,2.2989,2.2992,2.297,2.2966,2.2946,2.2956,2.2997,2.2932,2.2931,2.2943,2.303,2.3046,2.3054,2.2981,2.2982,2.2983,2.303,0,2.308,2.3097,2.3071,2.3095,2.3099,2.3062,2.3072,2.3061,2.3046,2.3047,2.3029,2.3031,2.3003,2.3,2.3009,2.2991,2.3014,2.2987,2.2986,2.2987,2.299,2.3062,2.3079,2.3124,2.3036,2.3037,2.3038,0,2.3145,2.314,2.3164,2.3142,2.3143,2.3152,2.3144,2.3146,2.3132,2.312,2.3114,2.309,2.3098,2.3068,2.3077,2.306,2.3058,2.3049,2.305,2.3048,2.3015,2.306,2.3138,2.3145,2.3047,2.3046,2.3045,0,2.3209,2.3208,2.3221,2.3217,2.3192,2.3199,2.3189,2.3174,2.3172,2.3165,2.3163,2.3157,2.3154,2.3149,2.3123,2.3104,2.3135,2.3104,2.3124,2.3125,2.3132,2.3131,2.3209,2.3133,2.3133,2.3133,2.3133,0,2.3272,2.3287,2.3249,2.3258,2.3273,2.3242,2.3258,2.3245,2.3231,2.3235,2.3203,2.3207,2.3173,2.3173,2.3153,2.3163,2.3162,2.3152,2.3146,2.3154,2.3155,2.3151,2.3147,2.3135,2.3134,2.3134,2.3134,0,2.3346,2.3321,2.3333,2.3308,2.3302,2.3314,2.3293,2.3299,2.3281,2.3286,2.3285,2.3257,2.3255,2.3229,2.3222,2.3208,2.3225,2.3214,2.323,2.3226,2.3247,2.3245,2.3325,2.3333,2.3253,2.3254,2.3254,0,2.3387,2.3397,2.3373,2.3373,2.3365,2.3366,2.3363,2.3333,2.3331,2.3315,2.3323,2.3318,2.3313,2.3312,2.329,2.3284,2.3271,2.33,2.327,2.3277,2.327,2.3269,2.3269,2.3306,2.3307,2.3308,2.3308,0,2.3461,2.3448,2.3445,2.3438,2.3435,2.3428,2.3419,2.3421,2.3388,2.3387,2.3385,2.3381,2.3373,2.3368,2.3358,2.3346,2.3321,2.3318,2.3322,2.3329,2.3337,2.3331,2.3245,2.3316,2.3315,2.3314,2.3314,2.3314,2.3518,2.3525,2.3509,2.3506,2.3496,2.3488,2.3491,2.3473,2.3471,2.3462,2.3444,2.3444,2.3428,2.3411,2.3402,2.34,2.3386,2.3392,2.3393,2.3395,2.3399,2.3338,2.3399,2.3398,2.3398,2.3398,2.3398,0,2.3589,2.3577,2.3575,2.3562,2.356,2.3537,2.3525,2.3524,2.3525,2.3512,2.3507,2.3503,2.3498,2.3475,2.3467,2.3471,2.3459,2.3469,2.3468,2.3465,2.3413,2.341,2.3479,2.3479,2.3479,2.3479,2.3479,2.3479,2.3626,2.3636,2.3621,2.3624,2.3611,2.3611,2.3606,2.3597,2.3587,2.3584,2.3579,2.3564,2.3547,2.3537,2.3531,2.3524,2.3522,2.3536,2.3526,2.3477,2.3469,2.3462,2.3458,2.3537,2.3537,2.3578,2.3578,2.3578]}]]